Tracking 30995 objects as of 5-Jul-2025
HD Live streaming from Space Station
objects crossing your sky now

DMSP 5D-2 F13 DEB

Track DMSP 5D-2 F13 DEB now!
10-day predictions


NORAD ID: 40565
Int'l Code: 1995-015DY
Perigee: 824.1 km
Apogee: 1,077.1 km
Inclination: 98.8 °
Period: 103.9 minutes
Semi major axis: 7321 km
RCS: Unknown
Launch date: March 24, 1995
Source: United States (US)
Launch site: AIR FORCE WESTERN TEST RANGE (AFWTR)

Note: This is SATELLITE DEBRIS
Your satellite tracking list
Your tracking list is empty




NASA's NSSDC Master Catalog

Two Line Element Set (TLE):
1 40565U 95015DY  25183.32051295  .00001740  00000-0  13816-2 0  9999
2 40565  98.7805 310.7826 0172766 130.9216 230.7047 13.85769480515608
Source of the keplerian elements: AFSPC